Location: Coopersdale
(40.3556°N, 78.9372°W)
Time: 01:09:44
(UTC+00:00)

Transit 4A - Pass Details

Date: 23 January 2021
Orbit: 867 x 978 km, 66.8° (Epoch: 07 March)

Event Time Altitude Azimuth Distance (km) Brightness Sun altitude
Rises 11:05:13 0° 314° (NW) 3,596 - -16.5°
Reaches altitude 10° 11:08:39 10° 296° (WNW) 2,624 - -15.9°
Maximum altitude 11:12:25 17° 257° (WSW) 2,118 - -15.2°
Exits shadow 11:12:45 17° 253° (WSW) 2,120 9.3 -15.1°
Drops below altitude 10° 11:16:08 10° 218° (SW) 2,565 10.0 -14.5°
Sets 11:19:27 0° 199° (SSW) 3,480 10.8 -13.9°
